[[{"header":{"parameterUnit":"m.s-1","parameterCategory":2,"la1":30.2991,"la2":30.254,"lo1":-89.0895,"lo2":-89.0444,"dy":0.0017,"dx":0.0017,"nx":28,"ny":28,"refTime":"2025-08-19T09:00:00:Z","depth":"0","parameterNumber":2,"parameterNumberName":"U-component_of_CURRENTS"},"data":[0,0,0,0,0,0,0,0,0,0,0,0,0,0,0,0,0,0,0,0,0,0,0,0,0,0,0,0,0,0,0,0,0,0,0,0,0,0,0,0,0,0,0,0,0,0,0,0,0,0,0,0,0,0,0,0,0,0,0.395,0.3951,0,0.4005,0.4005,0.4006,0.3994,0.3994,0.3993,0.3992,0.398,0.398,0.398,0,0,0,0,0,0,0,0,0,0,0,0,0,0.3811,0.3814,0.3949,0.3951,0.3952,0.4005,0.4005,0.4006,0.3994,0.3994,0.3993,0.3992,0.398,0.398,0.398,0,0,0,0,0,0,0,0,0,0,0,0,0,0.3865,0.3815,0.3949,0.3956,0.3957,0.4005,0.4005,0.4006,0.3994,0.3993,0.3993,0.3992,0.3979,0.398,0.398,0.4001,0,0,0.3981,0.3981,0,0,0,0,0,0,0,0,0.3862,0.387,0.3954,0.3955,0.3957,0.3996,0.3952,0.4002,0.3995,0.3976,0.3992,0.3991,0.3982,0.3982,0.3989,0.4,0.4,0.3981,0.3981,0.3982,0.3982,0,0,0,0,0,0,0,0.3859,0.3867,0.3967,0.3955,0.3957,0.3948,0.3955,0.3961,0.3979,0.3977,0.3978,0.3991,0.3982,0.3989,0.3989,0.4,0.3981,0.3982,0.3982,0.3982,0.4052,0.4054,0,0,0,0,0,0,0.3864,0.3864,0.3965,0.3969,0.3911,0.3952,0.3959,0.3981,0.398,0.3981,0.3992,0.399,0.3989,0.3989,0.3988,0.4047,0.3982,0.3982,0.3982,0.4051,0.4053,0.4054,0,0,0,0,0,0,0.386,0.3872,0.3963,0.392,0.3932,0.3956,0.398,0.3982,0.3996,0.3993,0.3991,0.4005,0.3988,0.3988,0.4014,0.4045,0.3982,0.3982,0.4049,0.4051,0.4053,0.4143,0,0,0,0,0,0,0.3856,0.3871,0.3886,0.3921,0.3935,0.4005,0.3981,0.3984,0.4008,0.4006,0.4004,0.4001,0.3988,0.4013,0.4014,0.4044,0.3983,0.4046,0.405,0.4053,0.4138,0.4148,0.4157,0,0,0,0,0,0.3851,0.3882,0.3887,0.3899,0.3956,0.4007,0.4013,0.4022,0.401,0.4028,0.4029,0.4001,0.4033,0.4016,0.4016,0.4047,0.4045,0.4049,0.4052,0.4133,0.4146,0.4156,0,0,0,0,0,0,0.3829,0.3886,0.3891,0.3937,0.3974,0.4007,0.4027,0.4032,0.4048,0.4042,0.4027,0.4026,0.4063,0.4043,0.4024,0.4076,0.4033,0.4037,0.4094,0.4106,0.4115,0.4129,0.3983,0,0,0,0,0,0.3833,0.3873,0.3919,0.3957,0.3976,0.4001,0.4021,0.4031,0.4052,0.4058,0.4055,0.4056,0.4079,0.4082,0.4093,0.412,0.4166,0.4139,0.4149,0.4157,0.4168,0.4267,0.4288,0.4067,0.4066,0.4066,0,0,0.3834,0.3873,0.3893,0.3955,0.398,0.402,0.401,0.4051,0.4079,0.4054,0.4083,0.4093,0.4096,0.4134,0.4147,0.412,0.4254,0.4161,0.4169,0.4176,0.4274,0.4295,0.4315,0.4069,0.4069,0.4068,0,0,0.3856,0.3892,0.3927,0.3964,0.4015,0.4039,0.4055,0.4092,0.4103,0.4141,0.4136,0.4171,0.4182,0.4204,0.4214,0.4282,0.4307,0.4276,0.433,0.4427,0.4447,0.4464,0.4599,0.4627,0.4274,0.4274,0.4274,0,0.385,0.3906,0.3944,0.3987,0.4022,0.4051,0.4091,0.4117,0.4155,0.4178,0.4158,0.4227,0.4221,0.4296,0.4315,0.4306,0.4377,0.4287,0.4442,0.446,0.4477,0.461,0.464,0.4279,0.4278,0.4278,0.4277,0,0.3894,0.394,0.3968,0.4033,0.4075,0.412,0.4165,0.4199,0.4214,0.4241,0.4312,0.4327,0.4367,0.4375,0.4363,0.4475,0.4498,0.4452,0.4418,0.4505,0.4639,0.467,0.4286,0.4284,0.4283,0.4281,0,0,0.3879,0.3976,0.3985,0.4032,0.4104,0.4153,0.4204,0.4273,0.434,0.4357,0.4454,0.4473,0.4486,0.45,0.4503,0.4578,0.4763,0.4565,0.4568,0.4708,0.5027,0.4963,0.499,0.475,0.4754,0.4758,0.5093,0,0.3899,0.3985,0.4026,0.4115,0.417,0.4219,0.4284,0.4349,0.4404,0.4506,0.4533,0.4619,0.4533,0.4585,0.4641,0.4746,0.4839,0.4679,0.4913,0.4921,0.4859,0.502,0.4812,0.5084,0.5122,0.5127,0.5131,0,0.3933,0.3988,0.4069,0.419,0.4218,0.4271,0.4402,0.4468,0.4595,0.4643,0.4711,0.475,0.4864,0.4785,0.4984,0.4892,0.4963,0.503,0.5043,0.4967,0.4911,0.4992,0.5137,0.4956,0.5177,0.5174,0.517,0,0.3937,0.4033,0.4101,0.4138,0.4263,0.4309,0.4382,0.4504,0.4604,0.475,0.4852,0.4948,0.5057,0.5136,0.5214,0.5134,0.5467,0.5371,0.5388,0.5386,0.5244,0.522,0.524,0.5526,0.5525,0.5524,0.5524,0,0.3977,0.4039,0.4109,0.4158,0.4272,0.4339,0.4488,0.457,0.4733,0.4875,0.4925,0.5063,0.515,0.5312,0.5342,0.5481,0.5564,0.5454,0.5476,0.5272,0.5247,0.5105,0.5029,0.5537,0.5534,0.5532,0.553,0,0.4022,0.4052,0.4156,0.4255,0.4289,0.4386,0.4564,0.4674,0.4807,0.5008,0.5065,0.5239,0.5424,0.552,0.5721,0.5669,0.5638,0.5809,0.5581,0.5567,0.5334,0.5271,0.5209,0.5058,0.5898,0.5899,0.5899,0,0.4074,0.4117,0.4228,0.429,0.4342,0.4473,0.4565,0.4705,0.4818,0.5092,0.5189,0.5432,0.5554,0.5838,0.582,0.5924,0.5706,0.5781,0.5545,0.5342,0.5292,0.5074,0.4934,0.5437,0.5433,0.5431,0.5428,0,0.418,0.4202,0.429,0.4389,0.4477,0.4574,0.4698,0.4787,0.4953,0.5112,0.5302,0.5433,0.5664,0.5664,0.5795,0.5798,0.5478,0.5724,0.5571,0.4994,0.4705,0.4561,0.5231,0.5404,0.5406,0.5408,0.5409,0.541,0.4273,0.4351,0.4429,0.451,0.4592,0.462,0.4652,0.4767,0.4912,0.5042,0.5264,0.5342,0.5454,0.558,0.5573,0.5357,0.5329,0.516,0.514,0.4966,0.4671,0.5302,0.5433,0.5436,0.5438,0.544,0.5442,0,0.4388,0.444,0.4532,0.4598,0.4618,0.464,0.4694,0.466,0.4722,0.4876,0.5001,0.5033,0.5059,0.5077,0.498,0.4793,0.4553,0.4646,0.4273,0.4191,0.4825,0.4645,0.4537,0.4537,0.4537,0.4537,0.4538,0.4538,0.4457,0.4547,0.4545,0.4561,0.4577,0.4501,0.4467,0.4425,0.4451,0.4414,0.4377,0.4442,0.4575,0.4643,0.4438,0.4329,0.3973,0.3818,0.3805,0.4223,0.4266,0.4306,0.4115,0.3899,0.3898,0.2962,0.2956,0.295]},{"header":{"parameterUnit":"m.s-1","parameterCategory":2,"la1":30.2991,"la2":30.254,"lo1":-89.0895,"lo2":-89.0444,"dy":0.0017,"dx":0.0017,"nx":28,"ny":28,"refTime":"2025-08-19T09:00:00:Z","depth":"0","parameterNumber":3,"parameterNumberName":"V-component_of_CURRENTS"},"data":[0,0,0,0,0,0,0,0,0,0,0,0,0,0,0,0,0,0,0,0,0,0,0,0,0,0,0,0,0,0,0,0,0,0,0,0,0,0,0,0,0,0,0,0,0,0,0,0,0,0,0,0,0,0,0,0,0,0,0.0198,0.0197,0,0.0136,0.0135,0.0134,0.0083,0.0083,0.0082,0.0082,-0.003,-0.0032,-0.0035,0,0,0,0,0,0,0,0,0,0,0,0,0,0.0211,0.0212,0.0198,0.0197,0.0197,0.0136,0.0135,0.0134,0.0083,0.0083,0.0082,0.0082,-0.0029,-0.0032,-0.0035,0,0,0,0,0,0,0,0,0,0,0,0,0,0.0181,0.0212,0.0198,0.0165,0.0162,0.0136,0.0135,0.0134,0.0083,0.0083,0.0082,0.0082,-0.0028,-0.0032,-0.0035,-0.0049,0,0,-0.0048,-0.0049,0,0,0,0,0,0,0,0,0.0183,0.0181,0.0171,0.0168,0.0164,0.0118,0.0099,0.0071,0.0083,0.0111,0.0082,0.0081,0.0017,0.0009,-0.0003,-0.0054,-0.0059,-0.0048,-0.005,-0.0052,-0.0053,0,0,0,0,0,0,0,0.0185,0.0183,0.0171,0.017,0.0166,0.0133,0.0129,0.0093,0.0066,0.0109,0.0105,0.0102,0.0014,0.0001,-0.0006,-0.0061,-0.0048,-0.0051,-0.0054,-0.0055,-0.0129,-0.0128,0,0,0,0,0,0,0.0201,0.0185,0.0173,0.017,0.0174,0.0134,0.0128,0.0132,0.0067,0.0057,0.0102,0.01,0.0008,-0.0002,-0.001,-0.0012,-0.0052,-0.0056,-0.0058,-0.0129,-0.0129,-0.0128,0,0,0,0,0,0,0.0202,0.0201,0.0176,0.0177,0.0172,0.0135,0.0138,0.0131,0.0121,0.0063,0.0052,0.0101,0.0007,-0.0005,-0.0032,-0.0017,-0.0057,-0.0061,-0.013,-0.0129,-0.0128,-0.0026,0,0,0,0,0,0,0.0202,0.0202,0.0206,0.0178,0.0172,0.0175,0.0139,0.013,0.0121,0.0117,0.0058,0.0047,0.0006,-0.0025,-0.0036,-0.0023,-0.0064,-0.013,-0.0129,-0.0128,-0.003,-0.0022,-0.0015,0,0,0,0,0,0.0203,0.0221,0.0207,0.0205,0.0182,0.0176,0.017,0.0139,0.0122,0.0127,0.0086,0.0049,-0.0028,-0.0028,-0.004,-0.0029,-0.013,-0.0129,-0.0129,-0.0033,-0.0024,-0.0016,0,0,0,0,0,0,0.0231,0.0216,0.0201,0.0213,0.02,0.0168,0.0168,0.0148,0.012,0.0113,0.0056,0.0043,0.0022,-0.0017,-0.0016,-0.0049,-0.0086,-0.0088,-0.001,-0.0001,0.0006,0.0037,-0.0067,0,0,0,0,0,0.024,0.0247,0.0227,0.0237,0.0233,0.0201,0.0193,0.0176,0.0149,0.0136,0.0097,0.0052,0.0015,-0.0002,-0.0042,-0.0055,-0.0066,-0.0058,-0.0051,-0.0044,-0.0028,-0.0024,-0.0014,-0.0125,-0.0125,-0.0125,0,0,0.0252,0.0246,0.0249,0.0243,0.0226,0.0238,0.0195,0.0194,0.0202,0.0128,0.0124,0.0075,0.0016,-0.0,-0.0013,-0.0029,-0.0017,-0.0043,-0.0036,-0.0024,-0.0022,-0.0011,-0.0001,-0.0124,-0.0124,-0.0125,0,0,0.0291,0.0277,0.0299,0.0294,0.0283,0.0266,0.0272,0.0247,0.0234,0.0223,0.0171,0.0138,0.0084,0.0051,0.0025,0.0049,0.002,0.0031,0.0097,0.0101,0.0111,0.0119,0.0134,0.0143,0.0038,0.0038,0.0038,0,0.0305,0.0335,0.0305,0.0326,0.0334,0.0287,0.0319,0.0299,0.027,0.0272,0.0234,0.0172,0.011,0.0105,0.0102,0.0068,0.0072,0.0072,0.0114,0.0122,0.0129,0.0142,0.015,0.0043,0.0042,0.0042,0.0041,0,0.0365,0.0386,0.04,0.0414,0.0414,0.0435,0.0409,0.0406,0.0379,0.0362,0.0348,0.0272,0.0238,0.0208,0.0156,0.0175,0.0164,0.0124,0.01,0.0147,0.0157,0.0164,0.005,0.0048,0.0047,0.0046,0,0,0.041,0.0439,0.0445,0.0475,0.0467,0.0482,0.0491,0.0501,0.0533,0.0476,0.0519,0.0422,0.0383,0.035,0.0286,0.0278,0.0313,0.0228,0.0226,0.0259,0.0343,0.0325,0.033,0.0289,0.0291,0.0292,0.0335,0,0.047,0.0546,0.0534,0.0601,0.0641,0.0605,0.0631,0.0627,0.0612,0.0639,0.056,0.0568,0.0437,0.0438,0.04,0.0352,0.0335,0.0306,0.0278,0.0277,0.0269,0.0339,0.0307,0.0342,0.0342,0.0343,0.0344,0,0.0539,0.0584,0.0664,0.0722,0.0736,0.0763,0.0808,0.0828,0.0832,0.0824,0.0796,0.0745,0.0715,0.0605,0.0531,0.0525,0.0434,0.0383,0.0383,0.0337,0.0273,0.0289,0.0354,0.0108,0.0354,0.0353,0.0353,0,0.0613,0.0678,0.0752,0.0768,0.0816,0.0847,0.0876,0.0891,0.0944,0.0963,0.1014,0.0937,0.0955,0.0824,0.0677,0.0619,0.0622,0.0524,0.042,0.0418,0.037,0.0362,0.0207,0.0468,0.0468,0.0468,0.0468,0,0.0694,0.0755,0.0797,0.0842,0.0947,0.0941,0.105,0.1064,0.1122,0.1229,0.1126,0.1209,0.1015,0.0975,0.0782,0.0654,0.0696,0.046,0.0437,0.0404,0.0399,0.0162,0.0015,0.047,0.0469,0.0469,0.0469,0,0.0767,0.0793,0.0889,0.0956,0.0988,0.1067,0.118,0.1259,0.13,0.1444,0.147,0.146,0.1423,0.1219,0.1065,0.0837,0.0548,0.0615,0.0598,0.0571,0.0201,0.0062,-0.008,-0.0188,0.0504,0.0504,0.0504,0,0.0818,0.0872,0.0979,0.1049,0.1086,0.1198,0.1283,0.1346,0.1444,0.1612,0.1702,0.1727,0.1783,0.1552,0.1175,0.0876,0.0605,0.0603,0.0452,0.0204,0.0032,-0.0061,-0.015,0.0433,0.0433,0.0432,0.0432,0,0.0913,0.094,0.1017,0.1163,0.1264,0.1385,0.1516,0.1627,0.1734,0.1892,0.2104,0.2187,0.1979,0.1702,0.1266,0.1003,0.0412,0.0581,0.0328,-0.0023,-0.0136,-0.0259,0.0384,0.0427,0.0428,0.0428,0.0428,0.0429,0.0981,0.1057,0.1153,0.1284,0.1401,0.155,0.1682,0.1849,0.2068,0.235,0.241,0.2611,0.2125,0.1553,0.1171,0.0387,0.0398,0.0115,-0.0022,-0.0084,-0.023,0.0413,0.0419,0.0419,0.042,0.042,0.042,0,0.1063,0.1143,0.1272,0.1429,0.1554,0.1603,0.1818,0.1977,0.2269,0.2588,0.2825,0.2709,0.2098,0.1423,0.0384,-0.013,-0.034,-0.0424,-0.0599,-0.0655,-0.0078,-0.0127,-0.0242,-0.0242,-0.0242,-0.0242,-0.0241,-0.0241,0.112,0.1241,0.1299,0.1514,0.1628,0.1817,0.1948,0.2222,0.248,0.2888,0.3062,0.3164,0.2552,0.0761,-0.0438,-0.0708,-0.1089,-0.1159,-0.1313,-0.0983,-0.0945,-0.0909,-0.099,-0.1285,-0.1286,-0.1843,-0.1849,-0.1854]}],[{"header":{"parameterUnit":"m.s-1","parameterCategory":2,"la1":30.2991,"la2":30.254,"lo1":-89.0895,"lo2":-89.0444,"dy":0.0017,"dx":0.0017,"nx":28,"ny":28,"refTime":"2025-08-19T09:00:00:Z","depth":"2","parameterNumber":2,"parameterNumberName":"U-component_of_CURRENTS"},"data":[0,0,0,0,0,0,0,0,0,0,0,0,0,0,0,0,0,0,0,0,0,0,0,0,0,0,0,0,0,0,0,0,0,0,0,0,0,0,0,0,0,0,0,0,0,0,0,0,0,0,0,0,0,0,0,0,0,0,0.2948,0.2948,0,0.3006,0.3007,0.3008,0.3038,0.3038,0.3037,0.3037,0.3071,0.3072,0.3073,0,0,0,0,0,0,0,0,0,0,0,0,0,0.2896,0.2897,0.2948,0.2948,0.2949,0.3006,0.3007,0.3008,0.3038,0.3038,0.3037,0.3037,0.307,0.3072,0.3073,0,0,0,0,0,0,0,0,0,0,0,0,0,0.2935,0.2897,0.2948,0.2969,0.2971,0.3006,0.3007,0.3008,0.3038,0.3038,0.3037,0.3037,0.307,0.3072,0.3073,0.3087,0,0,0.3078,0.3079,0,0,0,0,0,0,0,0,0.2932,0.2937,0.2965,0.2968,0.297,0.3013,0.3001,0.3033,0.3038,0.3015,0.3037,0.3037,0.3048,0.3051,0.3066,0.3089,0.309,0.3078,0.3079,0.308,0.308,0,0,0,0,0,0,0,0.2929,0.2934,0.2973,0.2966,0.2969,0.2987,0.2992,0.3008,0.3033,0.3017,0.3019,0.3022,0.3049,0.3065,0.3067,0.3091,0.3078,0.3079,0.308,0.3081,0.3175,0.3177,0,0,0,0,0,0,0.2917,0.2932,0.2971,0.2974,0.2948,0.2988,0.2994,0.3001,0.3033,0.3038,0.3022,0.3023,0.3062,0.3065,0.3068,0.3139,0.308,0.3081,0.3082,0.3174,0.3176,0.3178,0,0,0,0,0,0,0.2916,0.292,0.2969,0.2953,0.296,0.2989,0.2997,0.3002,0.3045,0.3037,0.3042,0.3062,0.3062,0.3066,0.3098,0.3138,0.3082,0.3083,0.3172,0.3174,0.3177,0.3247,0,0,0,0,0,0,0.2914,0.2919,0.2931,0.2952,0.296,0.3011,0.2997,0.3003,0.3044,0.3047,0.3072,0.3074,0.3062,0.3096,0.31,0.314,0.3084,0.317,0.3173,0.3176,0.3243,0.3252,0.3259,0,0,0,0,0,0.2912,0.2926,0.2932,0.2937,0.2972,0.3012,0.302,0.304,0.3047,0.3076,0.3084,0.3074,0.3118,0.3099,0.3103,0.3144,0.3169,0.3172,0.3176,0.3239,0.325,0.3259,0,0,0,0,0,0,0.2908,0.2931,0.2937,0.2957,0.2992,0.3017,0.3043,0.3061,0.3094,0.3093,0.3093,0.3096,0.3143,0.3133,0.3112,0.3179,0.3143,0.3147,0.319,0.32,0.3208,0.3208,0.3086,0,0,0,0,0,0.2912,0.2931,0.2958,0.2978,0.2997,0.3029,0.3051,0.3065,0.3088,0.3105,0.3122,0.3135,0.3158,0.317,0.3185,0.322,0.3257,0.3249,0.3258,0.3265,0.3268,0.3362,0.338,0.3189,0.3189,0.3189,0,0,0.2915,0.293,0.2941,0.2979,0.3007,0.3041,0.3044,0.3083,0.3113,0.3101,0.3155,0.3171,0.3176,0.3215,0.3235,0.3213,0.3344,0.3269,0.3275,0.3274,0.3368,0.3387,0.3403,0.3192,0.3191,0.3191,0,0,0.2928,0.2949,0.2971,0.3004,0.3045,0.3064,0.3084,0.3126,0.3153,0.3198,0.32,0.3237,0.3271,0.3283,0.3292,0.3355,0.3389,0.3369,0.3407,0.3499,0.3516,0.3531,0.363,0.3653,0.3367,0.3367,0.3367,0,0.2934,0.2961,0.2987,0.3021,0.3046,0.308,0.3114,0.3149,0.3197,0.3234,0.3221,0.3304,0.3301,0.3362,0.3374,0.3375,0.3441,0.3369,0.3512,0.3527,0.3542,0.3639,0.3664,0.3371,0.3371,0.337,0.337,0,0.2959,0.2994,0.3015,0.3064,0.3097,0.3134,0.3174,0.3226,0.3258,0.3296,0.3376,0.3379,0.3434,0.3438,0.3419,0.3522,0.3543,0.3519,0.3489,0.3565,0.3663,0.3688,0.3377,0.3375,0.3374,0.3373,0,0,0.2947,0.3018,0.3028,0.3061,0.3121,0.3151,0.3215,0.329,0.3363,0.34,0.3492,0.3512,0.354,0.355,0.355,0.3604,0.3755,0.3605,0.3608,0.3707,0.3992,0.3846,0.3859,0.3773,0.3777,0.378,0.403,0,0.2966,0.3024,0.3054,0.312,0.3159,0.3212,0.3281,0.3352,0.3419,0.3521,0.3546,0.3632,0.3578,0.3624,0.367,0.3748,0.382,0.3691,0.3898,0.3904,0.3768,0.3881,0.3576,0.3757,0.4054,0.4058,0.4061,0,0.2983,0.302,0.3079,0.3168,0.3192,0.3238,0.336,0.3419,0.3558,0.363,0.3712,0.3758,0.3854,0.3788,0.3961,0.3895,0.3949,0.3986,0.3997,0.3847,0.3802,0.3723,0.3791,0.4102,0.4098,0.4095,0.4093,0,0.2967,0.3041,0.3087,0.3115,0.3218,0.3268,0.3323,0.3457,0.3539,0.3708,0.3818,0.3922,0.4005,0.4089,0.4144,0.4098,0.4326,0.4278,0.42,0.4192,0.3959,0.3922,0.4403,0.4403,0.4402,0.4401,0.4401,0,0.2978,0.3016,0.3086,0.3122,0.3211,0.326,0.337,0.3485,0.3624,0.3738,0.3868,0.3976,0.4088,0.4208,0.4239,0.43,0.442,0.4235,0.425,0.3975,0.3938,0.4236,0.4213,0.4411,0.4409,0.4407,0.4405,0,0.2957,0.3007,0.3072,0.3171,0.3216,0.3268,0.3395,0.3445,0.364,0.3796,0.3866,0.4076,0.4238,0.4331,0.4483,0.4422,0.4492,0.4473,0.4138,0.4104,0.4285,0.4263,0.4456,0.4453,0.445,0.4448,0.4446,0,0.2945,0.2977,0.3101,0.3118,0.3162,0.3237,0.3278,0.345,0.3478,0.3827,0.3861,0.4125,0.4221,0.4408,0.4376,0.4444,0.4493,0.4161,0.3973,0.4297,0.4294,0.4275,0.4258,0.3733,0.3725,0.3719,0.3714,0,0.2908,0.2961,0.2975,0.3053,0.3092,0.3154,0.3203,0.3261,0.3447,0.3596,0.3787,0.3934,0.4152,0.4053,0.4132,0.4106,0.412,0.4033,0.4519,0.3724,0.3623,0.3616,0.3622,0.366,0.3665,0.3669,0.3672,0.3674,0.2816,0.2825,0.2861,0.2906,0.2984,0.3036,0.3005,0.3038,0.3126,0.3289,0.3523,0.3648,0.3768,0.3712,0.3637,0.3592,0.3849,0.3678,0.3695,0.3719,0.3548,0.3443,0.3418,0.3421,0.3425,0.3428,0.343,0,0.2666,0.2685,0.2707,0.2728,0.2728,0.2879,0.2909,0.2806,0.28,0.3018,0.3134,0.3002,0.3009,0.3154,0.3012,0.3013,0.2965,0.2888,0.2807,0.2866,0.2917,0.27,0.2349,0.2345,0.2341,0.2337,0,0,0.2571,0.2497,0.2522,0.2472,0.2508,0.2475,0.2479,0.2411,0.2479,0.2472,0.2541,0.2847,0.3059,0.2646,0.2616,0.2462,0.2629,0.2367,0.3248,0.3213,0.3258,0.3403,0.314,0,0,0,0,0]},{"header":{"parameterUnit":"m.s-1","parameterCategory":2,"la1":30.2991,"la2":30.254,"lo1":-89.0895,"lo2":-89.0444,"dy":0.0017,"dx":0.0017,"nx":28,"ny":28,"refTime":"2025-08-19T09:00:00:Z","depth":"2","parameterNumber":3,"parameterNumberName":"V-component_of_CURRENTS"},"data":[0,0,0,0,0,0,0,0,0,0,0,0,0,0,0,0,0,0,0,0,0,0,0,0,0,0,0,0,0,0,0,0,0,0,0,0,0,0,0,0,0,0,0,0,0,0,0,0,0,0,0,0,0,0,0,0,0,0,0.0103,0.0102,0,0.0051,0.005,0.0049,0.0004,0.0003,0.0003,0.0003,-0.0094,-0.0096,-0.0098,0,0,0,0,0,0,0,0,0,0,0,0,0,0.0101,0.0101,0.0103,0.0102,0.0102,0.0051,0.005,0.0049,0.0004,0.0003,0.0003,0.0002,-0.0093,-0.0096,-0.0098,0,0,0,0,0,0,0,0,0,0,0,0,0,0.0079,0.0102,0.0103,0.0075,0.0072,0.0051,0.005,0.0049,0.0004,0.0003,0.0003,0.0002,-0.0092,-0.0095,-0.0099,-0.011,0,0,-0.0109,-0.0111,0,0,0,0,0,0,0,0,0.008,0.0079,0.0079,0.0077,0.0073,0.0035,0.0014,-0.0006,0.0004,0.0027,0.0003,0.0002,-0.0053,-0.006,-0.0071,-0.0114,-0.0118,-0.0109,-0.0111,-0.0113,-0.0114,0,0,0,0,0,0,0,0.0082,0.008,0.008,0.0079,0.0075,0.0043,0.004,0.001,-0.0012,0.0025,0.0022,0.002,-0.0055,-0.0067,-0.0073,-0.012,-0.0109,-0.0112,-0.0114,-0.0116,-0.0184,-0.0184,0,0,0,0,0,0,0.0097,0.0082,0.0082,0.0079,0.0078,0.0044,0.004,0.0046,-0.0011,-0.0019,0.0021,0.0018,-0.0061,-0.0069,-0.0077,-0.0084,-0.0113,-0.0116,-0.0118,-0.0185,-0.0184,-0.0184,0,0,0,0,0,0,0.0097,0.0097,0.0084,0.008,0.0077,0.0046,0.0052,0.0045,0.0035,-0.0013,-0.0023,0.0018,-0.0062,-0.0072,-0.0098,-0.0089,-0.0118,-0.0121,-0.0185,-0.0184,-0.0184,-0.0104,0,0,0,0,0,0,0.0097,0.0098,0.0104,0.0082,0.0078,0.0082,0.0052,0.0045,0.0036,0.0032,-0.0019,-0.0029,-0.0063,-0.0093,-0.0101,-0.0094,-0.0123,-0.0185,-0.0185,-0.0184,-0.0107,-0.0101,-0.0096,0,0,0,0,0,0.0097,0.0116,0.0104,0.0104,0.0088,0.0083,0.0078,0.0052,0.0036,0.0039,0.0003,-0.0027,-0.0097,-0.0095,-0.0105,-0.0099,-0.0185,-0.0185,-0.0184,-0.011,-0.0103,-0.0096,0,0,0,0,0,0,0.012,0.0113,0.0099,0.0115,0.0103,0.0077,0.0077,0.0059,0.0033,0.0027,-0.0023,-0.0034,-0.0055,-0.0088,-0.0085,-0.0119,-0.0147,-0.0148,-0.0087,-0.008,-0.0075,-0.005,-0.0126,0,0,0,0,0,0.0129,0.0139,0.0123,0.0135,0.0131,0.0104,0.0097,0.0082,0.0058,0.0046,0.0011,-0.0029,-0.0061,-0.0078,-0.0112,-0.0127,-0.0155,-0.0132,-0.0126,-0.0121,-0.0109,-0.0142,-0.0138,-0.0183,-0.0183,-0.0183,0,0,0.014,0.0138,0.0142,0.014,0.0126,0.0136,0.0098,0.0098,0.0104,0.004,0.0033,-0.001,-0.0062,-0.008,-0.0092,-0.0105,-0.0123,-0.0121,-0.0116,-0.0106,-0.0141,-0.0136,-0.0132,-0.0182,-0.0182,-0.0182,0,0,0.0176,0.0167,0.0188,0.0184,0.0175,0.016,0.0165,0.0144,0.013,0.0119,0.0072,0.0039,-0.0008,-0.0041,-0.0065,-0.005,-0.0094,-0.0066,-0.0016,-0.0048,-0.0044,-0.0041,-0.0066,-0.0066,-0.0062,-0.0061,-0.0061,0,0.0187,0.0216,0.0193,0.0213,0.0219,0.0179,0.0205,0.0187,0.0159,0.0155,0.0128,0.006,0.0013,-0.0008,-0.0007,-0.0035,-0.0059,-0.0034,-0.0039,-0.0037,-0.0035,-0.0061,-0.0062,-0.0058,-0.0058,-0.0058,-0.0059,0,0.0241,0.026,0.0274,0.0287,0.0288,0.0304,0.0282,0.0278,0.0253,0.0233,0.0206,0.014,0.0104,0.0076,0.0037,0.0026,0.0003,-0.0027,-0.005,-0.0025,-0.0055,-0.0057,-0.0052,-0.0053,-0.0055,-0.0055,0,0,0.0277,0.0307,0.0311,0.0337,0.0331,0.0345,0.0351,0.0351,0.0366,0.0317,0.033,0.0253,0.0214,0.0184,0.0126,0.0091,0.0075,0.0043,0.0039,0.003,0.0011,-0.0045,-0.0053,0.0043,0.0043,0.0043,-0.0013,0,0.0325,0.0388,0.0385,0.0441,0.0472,0.0445,0.0461,0.0452,0.0429,0.043,0.0354,0.0341,0.0256,0.0244,0.0193,0.0113,0.0072,0.0093,-0.0021,-0.0024,-0.0068,-0.0057,-0.0028,-0.0079,-0.0015,-0.0016,-0.0016,0,0.0378,0.0416,0.0482,0.0532,0.0543,0.0565,0.0589,0.0601,0.0578,0.0563,0.0524,0.0467,0.0413,0.0337,0.0209,0.0228,0.0127,0.0054,0.0049,-0.003,-0.0084,-0.0096,-0.0086,-0.002,-0.002,-0.002,-0.0019,0,0.0424,0.0486,0.0545,0.0561,0.0602,0.0626,0.0646,0.0639,0.0674,0.0655,0.0683,0.0584,0.0565,0.0425,0.026,0.0241,0.0119,0.0072,-0.0076,-0.008,-0.0092,-0.0098,-0.0023,-0.0023,-0.0023,-0.0023,-0.0023,0,0.0479,0.0528,0.0575,0.0609,0.069,0.069,0.0767,0.0768,0.0792,0.0861,0.0762,0.0792,0.0586,0.0487,0.0312,0.0119,0.0155,-0.006,-0.0099,-0.0065,-0.0068,-0.0049,-0.0051,-0.0025,-0.0025,-0.0024,-0.0024,0,0.0517,0.0545,0.0628,0.0689,0.0716,0.0775,0.0868,0.0924,0.0935,0.1024,0.1033,0.0959,0.0831,0.0609,0.0392,0.0204,0.0014,-0.0071,-0.0017,-0.005,-0.0177,-0.0175,-0.0232,-0.0235,-0.0237,-0.0239,-0.024,0,0.0542,0.0586,0.0691,0.0754,0.0786,0.0877,0.0946,0.0989,0.1069,0.1138,0.1197,0.11,0.1054,0.0703,0.0356,0.0038,-0.0,-0.0159,-0.021,-0.0167,-0.0198,-0.0193,-0.0188,-0.0188,-0.0189,-0.0189,-0.019,0,0.0589,0.0624,0.0691,0.0826,0.0916,0.1036,0.1144,0.1235,0.131,0.1389,0.1475,0.1442,0.1107,0.0782,0.0315,0.0093,-0.0111,-0.0187,-0.0141,-0.0149,-0.0133,-0.0161,-0.0156,-0.0196,-0.0196,-0.0195,-0.0195,-0.0195,0.0621,0.068,0.0773,0.0909,0.1014,0.1172,0.1304,0.1433,0.1583,0.1716,0.1664,0.1629,0.1236,0.0644,0.0251,-0.0166,-0.016,-0.0305,-0.0299,-0.0293,-0.0288,-0.0278,-0.0366,-0.0367,-0.0367,-0.0367,-0.0367,0,0.0666,0.0733,0.0855,0.1033,0.1182,0.1219,0.1421,0.156,0.1764,0.1849,0.1901,0.1534,0.1152,0.0722,0.0097,-0.029,-0.0303,-0.0401,-0.0326,-0.0318,-0.0311,-0.0304,-0.0388,-0.0389,-0.039,-0.039,0,0,0.0692,0.0801,0.0876,0.1133,0.1269,0.1467,0.1592,0.1775,0.1886,0.1974,0.1948,0.183,0.1299,0.0846,0.0322,-0.002,-0.0074,-0.0091,-0.0038,0.012,0.0132,-0.0227,-0.0204,0,0,0,0,0]}],[{"header":{"parameterUnit":"m.s-1","parameterCategory":2,"la1":30.2991,"la2":30.254,"lo1":-89.0895,"lo2":-89.0444,"dy":0.0017,"dx":0.0017,"nx":28,"ny":28,"refTime":"2025-08-19T09:00:00:Z","depth":"4","parameterNumber":2,"parameterNumberName":"U-component_of_CURRENTS"},"data":[0,0,0,0,0,0,0,0,0,0,0,0,0,0,0,0,0,0,0,0,0,0,0,0,0,0,0,0,0,0,0,0,0,0,0,0,0,0,0,0,0,0,0,0,0,0,0,0,0,0,0,0,0,0,0,0,0,0,0.1729,0.173,0,0.1791,0.1792,0.1792,0.1841,0.1842,0.1843,0.1843,0.1952,0.1955,0.1957,0,0,0,0,0,0,0,0,0,0,0,0,0,0.1636,0.1637,0.1729,0.173,0.1731,0.1791,0.1792,0.1792,0.1841,0.1842,0.1843,0.1844,0.1952,0.1954,0.1957,0,0,0,0,0,0,0,0,0,0,0,0,0,0.1683,0.1638,0.1729,0.1764,0.1769,0.1791,0.1792,0.1792,0.1841,0.1842,0.1843,0.1844,0.1951,0.1954,0.1957,0.1956,0,0,0.1967,0.1969,0,0,0,0,0,0,0,0,0.168,0.1686,0.1758,0.1762,0.1767,0.1812,0.1799,0.185,0.1841,0.181,0.1843,0.1845,0.1911,0.1917,0.1922,0.1961,0.1966,0.1968,0.197,0.1971,0.1972,0,0,0,0,0,0,0,0.1677,0.1683,0.1751,0.1759,0.1764,0.1772,0.178,0.1809,0.1852,0.1813,0.1818,0.1829,0.1913,0.1919,0.1925,0.1967,0.1968,0.1971,0.1973,0.1974,0.2121,0.2123,0,0,0,0,0,0,0.1674,0.168,0.1749,0.1753,0.1728,0.1773,0.1782,0.1794,0.1851,0.1861,0.1828,0.1831,0.1912,0.1921,0.1929,0.2036,0.1971,0.1974,0.1976,0.2119,0.2122,0.2124,0,0,0,0,0,0,0.1672,0.168,0.1746,0.172,0.1729,0.1774,0.1787,0.1795,0.1842,0.1862,0.1873,0.1872,0.1914,0.1925,0.1989,0.2036,0.1976,0.1979,0.2117,0.212,0.2123,0.2181,0,0,0,0,0,0,0.1669,0.1678,0.17,0.172,0.1731,0.1786,0.1787,0.1795,0.1846,0.1851,0.1903,0.1912,0.1915,0.1984,0.1993,0.204,0.1981,0.2115,0.2118,0.2122,0.2177,0.2186,0.2193,0,0,0,0,0,0.1665,0.1682,0.17,0.1709,0.1754,0.1787,0.1794,0.1826,0.1847,0.1872,0.191,0.1912,0.2013,0.1989,0.1998,0.2047,0.2113,0.2117,0.2121,0.2173,0.2184,0.2193,0,0,0,0,0,0,0.1656,0.169,0.171,0.1738,0.1775,0.1797,0.1828,0.185,0.1898,0.1917,0.1935,0.1946,0.2022,0.2026,0.1998,0.21,0.2065,0.2071,0.2101,0.2111,0.2119,0.2114,0.1984,0,0,0,0,0,0.1663,0.1688,0.1722,0.1752,0.1774,0.181,0.1835,0.1859,0.1897,0.1921,0.1959,0.2,0.2039,0.2069,0.2102,0.2156,0.2169,0.2194,0.2203,0.2209,0.2212,0.2274,0.2288,0.2138,0.2138,0.2138,0,0,0.1666,0.1693,0.1707,0.1753,0.1787,0.182,0.1829,0.1879,0.1915,0.1925,0.2002,0.2036,0.2061,0.2123,0.2157,0.2137,0.2262,0.2215,0.2221,0.222,0.228,0.2295,0.2308,0.2141,0.214,0.214,0,0,0.1677,0.1717,0.1738,0.1772,0.183,0.1853,0.1879,0.1929,0.1966,0.203,0.2052,0.2112,0.2173,0.2199,0.2216,0.229,0.2305,0.2314,0.2352,0.2413,0.2426,0.2437,0.248,0.2495,0.2316,0.2316,0.2316,0,0.1681,0.1716,0.1752,0.1784,0.1818,0.1874,0.1907,0.1949,0.2017,0.2056,0.2067,0.218,0.2203,0.2274,0.23,0.2309,0.2345,0.2311,0.2424,0.2435,0.2446,0.2487,0.2503,0.2319,0.2319,0.2319,0.2318,0,0.1703,0.1741,0.1764,0.1822,0.1861,0.1907,0.1962,0.2024,0.208,0.2119,0.2219,0.2256,0.2322,0.2345,0.2345,0.2439,0.2441,0.2428,0.2396,0.2464,0.2504,0.2519,0.2324,0.2323,0.2322,0.2321,0,0,0.1678,0.1759,0.1772,0.1806,0.1888,0.192,0.1997,0.2074,0.2138,0.2214,0.2293,0.2364,0.2404,0.2426,0.2451,0.25,0.2604,0.2504,0.2506,0.2542,0.2746,0.2571,0.257,0.2624,0.2627,0.263,0.2745,0,0.1689,0.1744,0.1788,0.1856,0.1888,0.1966,0.2032,0.2112,0.2189,0.2283,0.2346,0.2438,0.2429,0.2487,0.2533,0.2601,0.2647,0.2574,0.2678,0.268,0.2512,0.2582,0.2639,0.2756,0.2759,0.2762,0.2764,0,0.1692,0.173,0.1783,0.1876,0.1902,0.1959,0.2083,0.215,0.2281,0.2345,0.2441,0.2504,0.2613,0.2588,0.2724,0.2689,0.2721,0.2752,0.2757,0.258,0.2532,0.2673,0.279,0.2788,0.2786,0.2785,0.2783,0,0.1639,0.1731,0.1775,0.1805,0.1911,0.1972,0.2054,0.2179,0.2251,0.2408,0.2482,0.2603,0.27,0.2762,0.2832,0.2806,0.2963,0.2928,0.2793,0.2781,0.2878,0.2865,0.3006,0.3006,0.3006,0.3005,0.3005,0,0.1611,0.165,0.1766,0.1781,0.1858,0.1959,0.2065,0.2156,0.2307,0.2382,0.2522,0.2601,0.2757,0.2856,0.288,0.2885,0.3007,0.2809,0.2802,0.2901,0.2888,0.2889,0.2874,0.3009,0.3009,0.3008,0.3007,0,0.1527,0.16,0.1644,0.1769,0.1822,0.1878,0.2057,0.2123,0.2294,0.2401,0.2465,0.2661,0.2791,0.29,0.3028,0.2943,0.2966,0.2931,0.3045,0.3041,0.2731,0.2718,0.2789,0.2784,0.2779,0.2776,0.2772,0,0.1478,0.1498,0.161,0.1632,0.1693,0.1813,0.1884,0.2082,0.2153,0.2397,0.2424,0.264,0.2738,0.2791,0.291,0.2956,0.2913,0.2901,0.2787,0.2724,0.2711,0.2705,0.2698,0.2766,0.2764,0.2763,0.2762,0,0.1367,0.1419,0.1448,0.1509,0.1578,0.1652,0.1785,0.1843,0.2056,0.2231,0.2342,0.2434,0.2578,0.2686,0.2758,0.2769,0.2895,0.2854,0.2862,0.2754,0.2696,0.2687,0.2685,0.2747,0.2749,0.275,0.2751,0,0.1274,0.1267,0.1314,0.1366,0.1432,0.1466,0.157,0.1686,0.1804,0.2088,0.212,0.234,0.2542,0.259,0.2642,0.2663,0.2611,0.2505,0.253,0.2548,0.2415,0.2302,0.2234,0,0,0,0,0,0.1161,0.1144,0.1173,0.1196,0.1262,0.1312,0.1478,0.1597,0.1828,0.1842,0.1986,0.2101,0.2224,0.2355,0.233,0.2525,0.261,0.2481,0.2495,0.2663,0.268,0.2544,0,0,0,0,0,0,0.1071,0.1076,0.1111,0.1056,0.1057,0.1112,0.1217,0.1375,0.1425,0.1671,0.1769,0.1938,0.211,0.2203,0.2273,0.2308,0.2267,0.2625,0.2619,0.2653,0.2669,0.2683,0.2549,0,0,0,0,0]},{"header":{"parameterUnit":"m.s-1","parameterCategory":2,"la1":30.2991,"la2":30.254,"lo1":-89.0895,"lo2":-89.0444,"dy":0.0017,"dx":0.0017,"nx":28,"ny":28,"refTime":"2025-08-19T09:00:00:Z","depth":"4","parameterNumber":3,"parameterNumberName":"V-component_of_CURRENTS"},"data":[0,0,0,0,0,0,0,0,0,0,0,0,0,0,0,0,0,0,0,0,0,0,0,0,0,0,0,0,0,0,0,0,0,0,0,0,0,0,0,0,0,0,0,0,0,0,0,0,0,0,0,0,0,0,0,0,0,0,0.011,0.0109,0,0.0076,0.0075,0.0075,0.0047,0.0046,0.0046,0.0046,-0.002,-0.0022,-0.0023,0,0,0,0,0,0,0,0,0,0,0,0,0,0.0102,0.0103,0.011,0.0109,0.0109,0.0076,0.0075,0.0075,0.0047,0.0046,0.0046,0.0046,-0.002,-0.0022,-0.0023,0,0,0,0,0,0,0,0,0,0,0,0,0,0.009,0.0103,0.011,0.0092,0.009,0.0076,0.0075,0.0074,0.0047,0.0046,0.0046,0.0046,-0.0019,-0.0021,-0.0024,-0.0033,0,0,-0.0031,-0.0032,0,0,0,0,0,0,0,0,0.009,0.009,0.0095,0.0093,0.0091,0.0066,0.0048,0.0037,0.0047,0.0062,0.0046,0.0046,0.0007,0.0002,-0.0005,-0.0036,-0.0039,-0.0031,-0.0033,-0.0034,-0.0034,0,0,0,0,0,0,0,0.0091,0.0091,0.0095,0.0095,0.0092,0.0069,0.0067,0.0046,0.0035,0.0061,0.0059,0.0057,0.0005,-0.0002,-0.0007,-0.004,-0.0031,-0.0033,-0.0035,-0.0036,-0.0089,-0.0089,0,0,0,0,0,0,0.0101,0.0092,0.0096,0.0094,0.0091,0.007,0.0068,0.0073,0.0036,0.003,0.0057,0.0056,0.0002,-0.0004,-0.0009,-0.0014,-0.0034,-0.0036,-0.0037,-0.0089,-0.0089,-0.0089,0,0,0,0,0,0,0.0101,0.0102,0.0097,0.0093,0.0091,0.0071,0.0077,0.0073,0.0068,0.0034,0.0027,0.0057,0.0001,-0.0006,-0.0023,-0.0017,-0.0037,-0.0039,-0.0089,-0.0089,-0.0089,-0.0028,0,0,0,0,0,0,0.0101,0.0102,0.0109,0.0094,0.0091,0.0096,0.0077,0.0073,0.0068,0.0066,0.0031,0.0025,0.0001,-0.002,-0.0026,-0.002,-0.0041,-0.0089,-0.0089,-0.0089,-0.003,-0.0026,-0.0023,0,0,0,0,0,0.0101,0.0117,0.011,0.011,0.0102,0.0097,0.0094,0.0077,0.0068,0.0071,0.0047,0.0026,-0.0024,-0.0021,-0.0029,-0.0024,-0.0089,-0.0089,-0.0089,-0.0032,-0.0027,-0.0023,0,0,0,0,0,0,0.0118,0.0115,0.0107,0.0121,0.0111,0.0093,0.0094,0.0083,0.0066,0.0064,0.0029,0.0021,0.0006,-0.0018,-0.0014,-0.0041,-0.0062,-0.0063,-0.0016,-0.0011,-0.0007,0.0007,-0.0043,0,0,0,0,0,0.0125,0.0135,0.0124,0.0134,0.0132,0.0114,0.0109,0.01,0.0084,0.0076,0.0052,0.0024,-0.0,-0.0012,-0.0037,-0.0048,-0.0083,-0.0052,-0.0048,-0.0045,-0.0039,-0.0085,-0.0084,-0.0089,-0.0089,-0.0089,0,0,0.0134,0.0134,0.0139,0.0138,0.0129,0.0137,0.011,0.0112,0.0117,0.0071,0.0069,0.0037,-0.0001,-0.0014,-0.0023,-0.0032,-0.0064,-0.0045,-0.0041,-0.0037,-0.0085,-0.0084,-0.0084,-0.0089,-0.0089,-0.0089,0,0,0.0159,0.0157,0.0173,0.0172,0.0166,0.0156,0.016,0.0145,0.0137,0.013,0.0096,0.0072,0.0039,0.0013,-0.0005,0.0004,-0.0042,-0.0008,0.0026,-0.0019,-0.0018,-0.0019,-0.0067,-0.0072,-0.0005,-0.0004,-0.0004,0,0.0168,0.019,0.0176,0.0192,0.0197,0.017,0.0189,0.0178,0.0159,0.0153,0.0138,0.0084,0.0053,0.0032,0.0034,0.0015,-0.0022,0.0015,-0.0013,-0.0014,-0.0015,-0.0065,-0.0071,-0.0001,-0.0002,-0.0002,-0.0002,0,0.0205,0.0222,0.0232,0.0245,0.0247,0.026,0.0247,0.0243,0.0228,0.0211,0.0187,0.0141,0.011,0.0092,0.0067,0.0043,0.0016,-0.0002,-0.002,-0.001,-0.0064,-0.0072,0.0003,0.0002,0.0001,0.0,0,0,0.0224,0.0253,0.0257,0.0278,0.0279,0.029,0.0296,0.0294,0.0299,0.0265,0.0263,0.0215,0.0183,0.016,0.0118,0.0079,0.0036,0.004,0.0036,-0.0001,-0.007,-0.0079,-0.0089,0.0012,0.0011,0.0011,-0.0105,0,0.0256,0.0304,0.0306,0.0351,0.0374,0.036,0.0372,0.0365,0.0343,0.0332,0.0276,0.0258,0.021,0.0197,0.0149,0.0067,0.002,0.0069,-0.008,-0.0085,-0.0088,-0.0097,0.0008,-0.0111,-0.0113,-0.0114,-0.0115,0,0.0288,0.0318,0.0369,0.0413,0.0422,0.0444,0.0458,0.0466,0.0436,0.0417,0.0378,0.0332,0.0274,0.0234,0.0095,0.0127,0.0037,-0.0034,-0.004,-0.0073,-0.0108,-0.0124,-0.013,-0.0129,-0.0128,-0.0127,-0.0126,0,0.0312,0.0364,0.041,0.0424,0.0462,0.0485,0.0504,0.0492,0.0513,0.0471,0.0472,0.0384,0.0354,0.0229,0.0086,0.0088,-0.0076,-0.0092,-0.019,-0.0193,-0.0176,-0.0174,-0.0193,-0.0193,-0.0193,-0.0192,-0.0192,0,0.0342,0.0381,0.043,0.0456,0.0522,0.0529,0.0586,0.0579,0.0586,0.0614,0.0524,0.0515,0.0352,0.0242,0.0099,-0.007,-0.0071,-0.0187,-0.0222,-0.0149,-0.0143,-0.0182,-0.0179,-0.0197,-0.0196,-0.0195,-0.0194,0,0.036,0.0386,0.0452,0.0511,0.0537,0.0586,0.0668,0.0705,0.0689,0.0721,0.0717,0.0618,0.0467,0.0286,0.0078,-0.0038,-0.0208,-0.0271,-0.0184,-0.0212,-0.0301,-0.0293,-0.0387,-0.0388,-0.0389,-0.039,-0.0391,0,0.0375,0.0409,0.0502,0.0556,0.0591,0.0669,0.0728,0.0755,0.08,0.0783,0.0802,0.0675,0.0582,0.0285,0.0079,-0.0207,-0.0245,-0.0337,-0.0315,-0.0295,-0.032,-0.0311,-0.0303,-0.0393,-0.0393,-0.0393,-0.0393,0,0.0407,0.0441,0.0499,0.0614,0.0694,0.0787,0.0872,0.0914,0.0938,0.0926,0.088,0.0721,0.0544,0.0302,0.0074,-0.013,-0.0278,-0.0349,-0.0348,-0.0328,-0.0304,-0.0325,-0.0315,-0.0397,-0.0397,-0.0396,-0.0396,0,0.0439,0.0489,0.0574,0.0675,0.078,0.0878,0.0919,0.0973,0.1012,0.0987,0.0968,0.0763,0.0649,0.034,0.013,-0.0075,-0.0123,-0.0181,-0.019,-0.0188,-0.0099,-0.0037,-0.0079,0,0,0,0,0,0.047,0.0532,0.0632,0.0748,0.0854,0.0916,0.1006,0.1035,0.1054,0.1037,0.1009,0.0842,0.0529,0.039,0.0187,0.0096,-0.017,-0.0152,-0.0244,-0.0418,-0.0413,-0.0344,0,0,0,0,0,0,0.0494,0.0584,0.0635,0.0788,0.0875,0.0997,0.1054,0.1067,0.106,0.1041,0.0882,0.0793,0.0491,0.0651,0.0185,0.012,0.0034,-0.0301,-0.0305,-0.042,-0.0416,-0.0413,-0.034,0,0,0,0,0]}]]